Weather History for Indianapolis, IN

Change the Weather History Date:

Tuesday, August 6, 2013

  Actual Average (KEYE) Record (KEYE)
Temperature  
Mean Temperature 73 °F 74 °F  
Max Temperature 80 °F 83 °F 93 °F (2007)
Min Temperature 66 °F 66 °F 53 °F (1997)
Degree Days  
Heating Degree Days 0 0  
Month to date heating degree days 0  
Since 1 June heating degree days 15  
Since 1 July heating degree days 1  
Cooling Degree Days 8 10  
Month to date cooling degree days 60  
Year to date cooling degree days 696  
Since 1 June cooling degree days 612  
Growing Degree Days 23 (Base 50)    
Moisture  
Dew Point 64 °F    
Average Humidity 76    
Maximum Humidity 89    
Minimum Humidity 65    
Precipitation  
Precipitation 0.10 in 0.10 in 0.63 in (2000)
Month to date precipitation 0.54  
Year to date precipitation 26.00  
Sea Level Pressure  
Sea Level Pressure 29.95 in    
Wind  
Wind Speed 3 mph (South)    
Max Wind Speed 8 mph    
Max Gust Speed -    
Visibility 8 miles    
Events Thunderstorm    
T = Trace of Precipitation, MM = Missing Value Source: NWS Daily Summary

Daily Weather History Graph

Daily Weather History Graph

Search for Another Location

Airport:

Trip Planner

Search our weather history database for the weather conditions in past years. The results will help you decide how hot, cold, wet, or windy it might be!

Date:

Astronomy

Aug. 06, 2013 Rise Set
Actual Time 6:48 AM EDT 8:52 PM EDT
Civil Twilight 6:18 AM EDT 9:22 PM EDT
Nautical Twilight 5:41 AM EDT 9:58 PM EDT
Astronomical Twilight 5:02 AM EDT 10:38 PM EDT
Moon 6:38 AM EDT (8/6) 8:27 PM EDT (8/6)
Length of Visible Light 15h 04m
Length of Day
14h 04m
Waning Crescent, 0% of the Moon is Illuminated
Aug 6
Waning Crescent
Aug 6
New
Aug 14
First Quarter
Aug 20
Full
Aug 28
Last Quarter

Hourly Weather History & Observations

Time (EDT) Temp. Heat Index Dew Point Humidity Pressure Visibility Wind Dir Wind Speed Gust Speed Precip Events Conditions
12:15 AM 66.2 °F - 59.5 °F 79% 29.98 in 10.0 mi East 3.5 mph - N/A   Overcast
12:35 AM 66.2 °F - 59.2 °F 78% 29.98 in 10.0 mi East 3.5 mph - N/A   Overcast
12:55 AM 66.4 °F - 59.2 °F 78% 29.98 in 10.0 mi Calm Calm - N/A   Overcast
1:15 AM 66.4 °F - 59.2 °F 78% 29.97 in 10.0 mi East 3.5 mph - N/A   Overcast
1:35 AM 66.4 °F - 59.5 °F 79% 29.96 in 10.0 mi Calm Calm - N/A   Overcast
1:55 AM 66.6 °F - 59.5 °F 78% 29.95 in 10.0 mi Calm Calm - N/A   Overcast
2:15 AM 66.4 °F - 59.9 °F 80% 29.95 in 10.0 mi Calm Calm - N/A   Overcast
2:35 AM 66.2 °F - 60.1 °F 81% 29.95 in 10.0 mi Calm Calm - N/A   Overcast
2:55 AM 66.2 °F - 60.4 °F 82% 29.95 in 10.0 mi Calm Calm - N/A   Overcast
3:15 AM 66.2 °F - 60.8 °F 83% 29.96 in 10.0 mi Calm Calm - N/A   Overcast
3:35 AM 66.2 °F - 60.8 °F 83% 29.96 in 10.0 mi Calm Calm - N/A   Overcast
3:55 AM 66.4 °F - 60.8 °F 82% 29.95 in 10.0 mi Calm Calm - N/A   Overcast
4:15 AM 66.2 °F - 60.8 °F 83% 29.94 in 10.0 mi Calm Calm - N/A   Overcast
4:35 AM 66.2 °F - 60.8 °F 83% 29.94 in 10.0 mi SE 3.5 mph - N/A   Overcast
4:55 AM 66.4 °F - 60.6 °F 82% 29.93 in 10.0 mi Calm Calm - N/A   Overcast
5:15 AM 66.7 °F - 60.3 °F 80% 29.93 in 10.0 mi SE 3.5 mph - N/A   Overcast
5:35 AM 66.7 °F - 60.1 °F 79% 29.93 in 10.0 mi Calm Calm - N/A   Overcast
5:55 AM 66.2 °F - 60.4 °F 82% 29.93 in 10.0 mi SSE 3.5 mph - N/A   Overcast
6:15 AM 66.6 °F - 60.4 °F 81% 29.94 in 10.0 mi Calm Calm - N/A   Overcast
6:35 AM 67.1 °F - 60.8 °F 80% 29.94 in 10.0 mi SSE 3.5 mph - N/A   Overcast
6:55 AM 67.3 °F - 60.8 °F 80% 29.95 in 10.0 mi South 3.5 mph - N/A   Overcast
7:15 AM 67.5 °F - 60.8 °F 79% 29.95 in 10.0 mi South 3.5 mph - N/A   Overcast
7:35 AM 68.2 °F - 61.5 °F 79% 29.96 in 10.0 mi SSW 3.5 mph - N/A   Overcast
7:55 AM 68.9 °F - 61.9 °F 78% 29.96 in 10.0 mi South 3.5 mph - N/A   Overcast
8:15 AM 69.4 °F - 62.4 °F 78% 29.96 in 10.0 mi South 4.6 mph - N/A   Overcast
8:35 AM 70.0 °F - 62.6 °F 77% 29.96 in 10.0 mi SSW 5.8 mph - N/A   Overcast
8:55 AM 70.2 °F - 62.4 °F 76% 29.96 in 10.0 mi South 4.6 mph - N/A   Overcast
9:15 AM 70.5 °F - 62.6 °F 76% 29.96 in 10.0 mi SSE 3.5 mph - N/A   Overcast
9:35 AM 70.9 °F - 62.8 °F 75% 29.96 in 10.0 mi SSE 3.5 mph - N/A   Overcast
9:55 AM 71.1 °F - 63.0 °F 75% 29.96 in 10.0 mi South 4.6 mph - N/A   Overcast
10:15 AM - - - N/A% 29.96 in 10.0 mi North - - N/A   Overcast
10:35 AM - - - N/A% 29.97 in - North - - 0.10 in Thunderstorm Thunderstorm
11:15 AM 72.0 °F - 63.0 °F 73% 29.97 in 10.0 mi South 4.6 mph - N/A   Overcast
11:35 AM 72.9 °F - 63.5 °F 72% 29.96 in 7.0 mi South 5.8 mph - N/A   Overcast
11:55 AM 73.4 °F - 63.7 °F 71% 29.96 in 7.0 mi South 4.6 mph - N/A   Overcast
12:15 PM 73.4 °F - 63.7 °F 71% 29.97 in 7.0 mi SSW 8.1 mph - N/A   Overcast
12:35 PM 73.4 °F - 63.9 °F 72% 29.96 in 7.0 mi South 6.9 mph - N/A   Overcast
12:55 PM 73.8 °F - 64.4 °F 72% 29.97 in 7.0 mi SSW 4.6 mph - N/A   Overcast
1:15 PM 74.7 °F - 65.3 °F 73% 29.96 in 7.0 mi SSW 5.8 mph - N/A   Overcast
1:35 PM 74.7 °F - 65.5 °F 73% 29.96 in 7.0 mi Calm Calm - N/A   Overcast
1:55 PM 75.2 °F - 65.8 °F 73% 29.96 in 7.0 mi SW 3.5 mph - N/A   Overcast
2:15 PM 75.6 °F - 66.0 °F 72% 29.95 in 7.0 mi South 4.6 mph - N/A   Overcast
2:35 PM 75.2 °F - 65.7 °F 72% 29.96 in 7.0 mi SW 3.5 mph - N/A   Overcast
2:55 PM 76.3 °F - 66.0 °F 70% 29.95 in 7.0 mi SSW 4.6 mph - N/A   Overcast
3:15 PM 76.8 °F - 66.4 °F 70% 29.95 in 7.0 mi SSW 4.6 mph - N/A   Overcast
3:35 PM 77.0 °F - 66.4 °F 70% 29.95 in 7.0 mi South 3.5 mph - N/A   Overcast
3:55 PM 77.2 °F - 66.2 °F 69% 29.94 in 10.0 mi South 3.5 mph - N/A   Overcast
4:15 PM 77.2 °F - 66.2 °F 69% 29.94 in 7.0 mi Calm Calm - N/A   Overcast
4:35 PM 77.5 °F - 66.4 °F 68% 29.94 in 10.0 mi SSE 3.5 mph - N/A   Overcast
4:55 PM 78.1 °F - 66.9 °F 68% 29.94 in 7.0 mi South 3.5 mph - N/A   Overcast
5:15 PM 78.4 °F - 67.1 °F 68% 29.94 in 7.0 mi South 3.5 mph - N/A   Mostly Cloudy
5:35 PM 78.8 °F - 66.9 °F 67% 29.94 in 7.0 mi South 3.5 mph - N/A   Scattered Clouds
5:55 PM 79.2 °F - 67.3 °F 67% 29.93 in 7.0 mi SSE 4.6 mph - N/A   Scattered Clouds
6:15 PM 78.6 °F - 67.1 °F 68% 29.92 in 7.0 mi SSE 3.5 mph - N/A   Scattered Clouds
6:35 PM 78.3 °F - 67.1 °F 68% 29.93 in 7.0 mi South 3.5 mph - N/A   Mostly Cloudy
6:55 PM 79.9 °F - 67.8 °F 66% 29.92 in 7.0 mi SSE 3.5 mph - N/A   Mostly Cloudy
7:15 PM 80.1 °F 82.4 °F 67.3 °F 65% 29.92 in 10.0 mi SSW 5.8 mph - N/A   Mostly Cloudy
7:35 PM 79.7 °F - 67.3 °F 66% 29.92 in 10.0 mi SSW 4.6 mph - N/A   Scattered Clouds
7:55 PM 78.6 °F - 67.3 °F 68% 29.93 in 10.0 mi SW 4.6 mph - N/A   Scattered Clouds
8:15 PM 77.0 °F - 67.6 °F 73% 29.93 in 10.0 mi SW 3.5 mph - N/A   Clear
8:35 PM 75.4 °F - 68.0 °F 78% 29.93 in 7.0 mi SSW 3.5 mph - N/A   Clear
8:55 PM 74.5 °F - 67.6 °F 79% 29.93 in 7.0 mi SSW 4.6 mph - N/A   Scattered Clouds
9:15 PM 73.0 °F - 67.1 °F 82% 29.93 in 7.0 mi South 3.5 mph - N/A   Clear
9:35 PM 71.2 °F - 66.6 °F 85% 29.93 in 5.0 mi Calm Calm - N/A   Clear
9:55 PM 69.8 °F - 65.5 °F 86% 29.93 in 5.0 mi Calm Calm - N/A   Clear
10:15 PM 70.0 °F - 66.0 °F 87% 29.93 in 5.0 mi Calm Calm - N/A   Scattered Clouds
10:35 PM 68.4 °F - 64.6 °F 88% 29.93 in 4.0 mi Calm Calm - N/A   Clear
10:55 PM 69.1 °F - 65.5 °F 88% 29.94 in 4.0 mi Calm Calm - N/A   Scattered Clouds
11:15 PM 69.4 °F - 66.0 °F 89% 29.94 in 4.0 mi Calm Calm - N/A   Mostly Cloudy
11:35 PM 70.3 °F - 66.7 °F 88% 29.94 in 5.0 mi Calm Calm - N/A   Overcast
11:55 PM 69.1 °F - 65.5 °F 88% 29.94 in 4.0 mi Calm Calm - N/A   Scattered Clouds